Weather History for Fort Polk, LA

Change the Weather History Date:

Monday, June 9, 2014

  Actual Average (KPOE) Record (KPOE)
Temperature  
Mean Temperature 79 °F -  
Max Temperature 90 °F 86 °F 93 °F (2003)
Min Temperature 69 °F 68 °F 68 °F (1997)
Cooling Degree Days 14    
Growing Degree Days 29 (Base 50)    
Moisture  
Dew Point 68 °F    
Average Humidity 85    
Maximum Humidity 93    
Minimum Humidity 57    
Precipitation  
Precipitation 0.77 in - - ()
Sea Level Pressure  
Sea Level Pressure 29.86 in    
Wind  
Wind Speed 4 mph (South)    
Max Wind Speed 8 mph    
Max Gust Speed 22 mph    
Visibility 7 miles    
Events Rain , Thunderstorm    
Averages and records for this station are not official NWS values.
T = Trace of Precipitation, MM = Missing Value Source: NWS Daily Summary

Daily Weather History Graph

Daily Weather History Graph

Search for Another Location

Airport:

Trip Planner

Search our weather history database for the weather conditions in past years. The results will help you decide how hot, cold, wet, or windy it might be!

Date:

Astronomy

Jun. 09, 2014 Rise Set
Actual Time 6:07 AM CDT 8:14 PM CDT
Civil Twilight 5:39 AM CDT 8:42 PM CDT
Nautical Twilight 5:06 AM CDT 9:15 PM CDT
Astronomical Twilight 4:29 AM CDT 9:52 PM CDT
Moon 4:47 PM CDT (6/9) 3:21 AM CDT (6/9)
Length of Visible Light 15h 02m
Length of Day
14h 07m
Waxing Gibbous, 85% of the Moon is Illuminated
Jun 9
Waxing Gibbous
Jun 12
Full
Jun 19
Last Quarter
Jun 27
New
Jul 5
First Quarter

Hourly Weather History & Observations

Time (CDT) Temp. Heat Index Dew Point Humidity Pressure Visibility Wind Dir Wind Speed Gust Speed Precip Events Conditions
11:35 AM 89.1 °F 96.0 °F 72.0 °F 57% 29.84 in 10.0 mi Variable 5.8 mph - N/A   Mostly Cloudy
11:54 AM 89.1 °F 96.0 °F 72.0 °F 57% 29.90 in 10.0 mi Variable 6.9 mph 19.6 mph N/A   Scattered Clouds
12:15 PM 89.1 °F 96.0 °F 72.0 °F 57% 29.82 in 10.0 mi Variable 6.9 mph 16.1 mph N/A Thunderstorm Thunderstorm
12:29 PM 82.0 °F 87.4 °F 73.0 °F 74% 29.82 in 1.5 mi West 8.1 mph - 0.09 in Rain , Thunderstorm Heavy Thunderstorms and Rain
12:38 PM 79.0 °F - 73.0 °F 82% 29.83 in 4.0 mi Calm Calm - 0.09 in Rain , Thunderstorm Light Thunderstorms and Rain
12:54 PM 81.0 °F 86.7 °F 75.0 °F 82% 29.89 in 10.0 mi Variable 3.5 mph - 0.09 in Thunderstorm Thunderstorm
1:09 PM 82.9 °F 90.8 °F 75.9 °F 79% 29.80 in 10.0 mi Variable 3.5 mph - N/A   Clear
2:21 PM 84.0 °F 91.2 °F 73.9 °F 72% 29.81 in 10.0 mi Variable 3.5 mph - N/A Thunderstorm Thunderstorm
2:33 PM 80.1 °F 84.5 °F 73.9 °F 81% 29.83 in 1.8 mi South 8.1 mph 17.3 mph 0.07 in Rain , Thunderstorm Heavy Thunderstorms and Rain
2:43 PM 75.9 °F - 72.0 °F 87% 29.86 in 4.0 mi North - - 0.08 in Rain , Thunderstorm Light Thunderstorms and Rain
2:54 PM 73.9 °F - 66.9 °F 79% 29.94 in 10.0 mi Variable 5.8 mph 21.9 mph 0.08 in Thunderstorm Thunderstorm
3:08 PM 72.0 °F - 66.9 °F 84% 29.87 in 2.5 mi Variable 4.6 mph - 0.05 in Rain Heavy Rain
3:14 PM 71.1 °F - 66.9 °F 87% 29.86 in 1.0 mi Variable 4.6 mph - 0.15 in Rain , Thunderstorm Heavy Thunderstorms and Rain
3:25 PM 70.0 °F - 66.9 °F 90% 29.87 in 1.0 mi Variable 5.8 mph - 0.26 in Rain , Thunderstorm Heavy Thunderstorms and Rain
3:31 PM 70.0 °F - 66.9 °F 90% 29.87 in 2.0 mi Variable 5.8 mph - 0.26 in Rain , Thunderstorm Light Thunderstorms and Rain
3:33 PM 70.0 °F - 66.9 °F 90% 29.87 in 3.0 mi Variable 3.5 mph - 0.26 in Rain , Thunderstorm Light Thunderstorms and Rain
3:44 PM 70.0 °F - 66.9 °F 90% 29.88 in 10.0 mi Variable 6.9 mph 18.4 mph 0.26 in Rain , Thunderstorm Light Thunderstorms and Rain
3:50 PM 69.8 °F - 66.2 °F 88% 29.89 in 1.5 mi Variable 5.8 mph - 0.33 in Rain , Thunderstorm Heavy Thunderstorms and Rain
3:54 PM 69.1 °F - 66.0 °F 90% 29.96 in 0.8 mi Variable 4.6 mph - 0.37 in Rain , Thunderstorm Heavy Thunderstorms and Rain
4:00 PM 69.1 °F - 66.0 °F 90% 29.88 in 1.2 mi Calm Calm - 0.01 in Rain , Thunderstorm Light Thunderstorms and Rain
4:03 PM 69.1 °F - 66.0 °F 90% 29.88 in 4.0 mi Variable 4.6 mph - 0.01 in Rain , Thunderstorm Light Thunderstorms and Rain
4:09 PM 69.1 °F - 66.0 °F 90% 29.89 in 1.5 mi Variable 3.5 mph - 0.07 in Rain , Thunderstorm Heavy Thunderstorms and Rain
4:17 PM 69.1 °F - 66.0 °F 90% 29.87 in 0.8 mi Calm Calm - 0.15 in Rain , Thunderstorm Thunderstorms and Rain
4:22 PM 69.1 °F - 66.0 °F 90% 29.86 in 2.0 mi Calm Calm - 0.17 in Rain , Thunderstorm Thunderstorms and Rain
4:32 PM 69.1 °F - 66.0 °F 90% 29.85 in 6.0 mi Calm Calm - 0.18 in Rain , Thunderstorm Light Thunderstorms and Rain
4:54 PM 71.1 °F - 66.9 °F 87% 29.92 in 10.0 mi Calm Calm - 0.18 in Thunderstorm Thunderstorm
5:01 PM 71.1 °F - 66.9 °F 87% 29.83 in 10.0 mi Calm Calm - N/A   Mostly Cloudy
5:19 PM 71.1 °F - 66.9 °F 87% 29.82 in 10.0 mi SSE 6.9 mph - 0.00 in Rain , Thunderstorm Light Thunderstorms and Rain
5:35 PM 70.0 °F - 66.9 °F 90% 29.81 in 9.0 mi Variable 3.5 mph - 0.01 in Rain Light Rain
5:54 PM 71.1 °F - 66.9 °F 87% 29.86 in 10.0 mi SSE 6.9 mph - 0.04 in Rain Light Rain
6:54 PM 71.1 °F - 68.0 °F 90% 29.86 in 10.0 mi Calm Calm - 0.01 in   Partly Cloudy
7:08 PM 71.1 °F - 68.0 °F 90% 29.79 in 10.0 mi Calm Calm - N/A   Mostly Cloudy
7:22 PM 71.1 °F - 68.0 °F 90% 29.79 in 10.0 mi Calm Calm - N/A   Scattered Clouds
7:54 PM 72.0 °F - 68.0 °F 87% 29.87 in 10.0 mi SE 3.5 mph - N/A   Partly Cloudy
8:54 PM 71.1 °F - 68.0 °F 90% 29.87 in 10.0 mi Calm Calm - N/A   Partly Cloudy
9:41 PM 70.0 °F - 66.9 °F 90% 29.80 in 10.0 mi Calm Calm - N/A   Mostly Cloudy
9:51 PM 69.8 °F - 66.2 °F 88% 29.80 in 10.0 mi Calm Calm - N/A   Scattered Clouds
9:54 PM 70.0 °F - 68.0 °F 93% 29.88 in 10.0 mi Calm Calm - N/A   Partly Cloudy
10:54 PM 70.0 °F - 66.9 °F 90% 29.88 in 10.0 mi Calm Calm - N/A   Mostly Cloudy
11:29 PM 70.0 °F - 66.9 °F 90% 29.81 in 10.0 mi Calm Calm - N/A   Scattered Clouds
11:54 PM 70.0 °F - 66.9 °F 90% 29.88 in 10.0 mi Calm Calm - N/A   Partly Cloudy